SCP
0 0 0 0 0 0 0 0 0 0 0 0 0 0 0 0 0 0 0 0 0 0 0 0 0 0 0 0 0 0 0 0 0 0 0 0 0 0 0 0 0 0 0 0 0 0 0
0 0 0 0 0 0 0 0 0 0 0 0 0 0 0 0 0 0 0 0 0 0 0 0 0 0 0 0 0 0 0 0 0 0 0 0 0 0 0 0 0 0 0 0 0 -0 0
0 0 0 0 0 0 0 0 0 0 0 0 0 0 0 0 0 0 0 0 0 0 0 0 0 0 0 0 0 0 0 0 0 0 0 0 0 0 0 0 -0 -0 -0 -0 -0 -0 -0
0 0 0 0 0 0 0 0 0 0 0 0 0 0 0 0 0 0 0 0 0 0 0 0 0 0 0 0 0 0 -0 0 0 0 0 0 0 0 0 0 0 -0 -0 -0 -0 0 0
0 0 0 0 0 0 0 0 0 0 0 0 0 0 0 0 0 0 0 0 0 0 0 0 0 0 0 0 0 0 0 0 0 0 0 0 0 0 0 -0 0 0 0 0 -0 -0 0
0 0 0 0 0 0 0 0 0 0 0 0 0 0 0 0 0 0 0 0 0 0 0 0 0 0 0 0 0 0 0 0 0 0 0 0 0 0 -0 0 -0 0 0 0 -0 -0 0
0 0 0 0 0 0 0 0 0 0 0 0 0 0 0 0 0 0 0 0 0 0 0 0 0 0 0 0 0 0 0 0 0 0 0 0 0 0 0 0 0 0 0 0 -0 -0 -0
0 0 0 0 0 0 0 0 0 0 0 0 0 0 0 0 0 0 0 0 0 0 0 0 0 0 0 0 0 0 0 0 0 0 0 0 0 0 0 0 0 0 -0 0 0 -0 0
0 0 0 0 0 0 0 0 0 0 0 0 0 0 0 0 0 0 0 0 0 0 0 0 0 0 0 0 0 0 0 0 0 0 0 0 0 0 0 0 0 -0 0 0 -0 -0 0
0 0 0 0 0 0 0 0 0 0 0 0 0 0 0 0 0 0 -0 0 0 0 0 0 0 0 0 0 0 0 0 0 0 0 0 0 0 0 0 -0 -0 -0 0 -0 -0 -0 -0
0 0 0 0 0 0 0 0 0 0 0 0 0 0 0 0 0 0 0 0 0 0 0 0 0 0 0 0 0 0 0 0 0 0 0 0 0 0 -0 0 -0 -0 0 -0 -0 -0 0
0 0 0 0 0 0 0 0 0 0 0 0 0 0 0 0 0 0 0 0 0 0 0 0 0 0 0 0 0 0 0 0 0 0 0 0 0 0 -0 -0 0 -0 -0 -0 0 0 0
0 0 0 0 0 0 0 0 0 0 0 0 0 0 0 0 0 0 0 0 0 0 0 0 0 0 0 0 0 0 0 0 0 0 0 0 0 -0 -0 -0 -0 -0 0 -0 -0 0 0
0 0 0 0 0 0 0 0 0 0 0 0 0 0 0 0 0 0 0 0 0 0 0 0 0 0 0 0 0 -0 0 0 0 0 0 0 0 -0 -0 -0 -0 -0 0 0 0 0 0
0 -0 -0 -0 0 0 0 0 0 0 0 0 0 0 0 0 0 0 0 0 0 0 0 0 0 0 0 0 0 0 0 0 0 0 0 0 0 0 -0 -0 -0 -0 0 0 0 0 0
-0 0 0 0 0 0 0 0 0 0 0 0 0 0 0 0 0 0 0 0 0 0 0 0 0 0 0 0 0 0 0 0 0 0 0 0 0 -0 0 -0 0 -0 0 0 0 -0 -0
0 0 0 0 0 0 0 0 0 0 0 0 0 0 0 0 0 0 0 0 0 0 0 0 0 0 0 0 0 0 0 0 0 0 0 0 0 0 -0 -0 -0 -0 0 0 0 0 0
0 0 0 0 0 0 0 0 0 0 0 0 0 0 0 0 0 0 0 0 0 0 0 0 0 0 0 0 0 0 0 0 0 0 0 0 0 0 0 -0 0 0 0 0 0 0 0
0 0 0 0 0 0 -0 0 0 0 0 0 0 0 0 0 0 0 0 0 0 0 0 0 0 0 -0 0 0 0 0 0 0 0 0 0 0 0 0 0 0 0 0 0 0 0 -0
0 0 0 0 0 0 0 0 0 0 0 0 0 0 0 0 0 0 0 0 0 0 0 0 0 0 -0 0 0 0 0 0 0 0 0 0 0 0 0 0 0 0 0 0 0 0 0
0 0 0 0 0 0 0 0 0 0 0 0 0 -0 0 0 0 0 0 -0 0 0 0 0 0 0 -0 -0 0 0 0 0 0 0 0 0 0 0 0 0 0 0 0 0 0 0 0
0 0 0 0 0 0 0 0 0 0 0 0 0 0 0 0 0 0 0 0 0 0 0 0 0 0 0 -0 0 0 0 0 0 0 0 0 0 0 0 0 0 0 0 0 0 0 0
0 0 0 0 0 0 0 0 0 0 0 0 0 -0 0 0 0 0 0 0 0 0 0 0 0 0 0 -0 -0 0 0 0 0 0 0 0 0 0 0 0 0 0 0 0 0 0 0
0 0 0 0 0 0 0 0 0 0 0 0 0 0 0 0 -0 0 0 -0 -0 -0 0 0 0 0 0 -0 -0 -0 0 0 0 0 0 0 0 0 0 0 0 0 0 0 0 0 0
0 0 0 0 0 0 0 0 0 0 0 0 0 0 0 0 0 -0 -0 -0 -0 -0 -0 0 0 0 -0 0 -0 -0 0 0 0 0 0 0 0 0 0 0 0 0 0 0 0 0 0
0 0 0 0 0 0 0 0 0 0 0 0 0 0 0 0 0 -0 0 0 -0 -0 -0 0 0 0 -0 -0 -0 -0 0 0 0 0 0 0 0 0 0 0 0 0 0 0 0 0 0
0 0 0 0 0 0 0 0 0 0 0 0 0 0 0 0 0 -0 -0 0 0 -0 0 0 0 0 0 -0 -0 -0 0 0 0 0 0 0 0 0 0 0 0 0 0 0 0 0 0
0 0 0 0 0 0 0 0 0 0 0 0 0 0 0 0 -0 0 0 0 0 -0 0 0 -0 0 0 0 -0 -0 -0 -0 0 0 0 0 0 0 0 0 1 0 0 0 0 0 0
0 0 0 0 0 0 0 0 0 0 0 0 0 0 0 0 0 0 0 0 0 0 -0 -0 -0 -0 0 0 0 0 -0 -0 -0 0 0 0 0 0 0 1 0 0 0 0 0 0 0
Wind_Speed_500mb
32 33 32 32 33 35 36 34 34 38 42 46 49 48 49 48 50 50 52 56 53 54 53 53 52 45 40 31 57 36 18 26 15 36 71 63 58 61 39 48 47 43 46 64 71 70 52
35 35 33 33 33 33 36 38 38 39 36 39 41 41 45 50 52 51 49 49 53 53 50 50 48 44 42 40 74 66 58 42 44 28 45 62 49 68 40 48 44 57 51 57 69 59 36
37 38 38 38 34 33 34 37 39 39 38 36 40 43 42 45 47 44 48 48 49 49 49 47 45 43 51 83 44 34 41 51 55 44 41 54 67 43 53 26 60 54 45 46 44 43 26
29 31 32 34 36 40 42 41 40 41 42 43 42 39 39 42 43 49 53 52 48 45 42 44 41 38 40 71 67 85 53 51 30 48 35 25 43 61 59 39 46 36 37 39 20 23 54
35 35 35 34 36 38 41 43 46 47 45 44 44 43 42 42 42 46 52 57 50 31 37 33 34 33 30 24 55 76 78 67 39 52 44 38 43 51 42 31 26 22 27 28 30 38 44
37 38 38 39 39 42 44 46 48 48 48 48 46 46 45 44 45 46 48 54 29 26 30 22 26 12 46 45 47 49 68 81 58 29 48 53 38 23 24 19 36 26 20 26 37 47 36
44 44 43 43 44 44 45 46 46 46 48 49 48 48 44 46 44 44 52 32 7 8 33 35 40 52 14 14 16 41 38 58 59 56 24 37 14 35 42 40 25 27 28 39 46 41 45
49 49 47 48 47 46 46 46 48 50 50 49 48 48 48 46 42 40 41 26 21 13 27 52 73 75 67 57 32 41 42 52 48 41 28 24 48 37 37 31 32 35 38 47 45 42 21
53 52 50 50 50 48 48 49 51 50 49 48 47 46 45 44 42 25 26 32 37 20 17 33 68 83 76 65 70 58 62 66 42 41 43 46 16 38 36 37 37 39 41 41 40 43 35
53 53 52 50 49 49 51 51 53 52 51 49 45 37 38 41 27 18 24 18 27 11 10 19 30 43 61 54 32 84 63 75 19 50 44 37 36 36 46 44 44 41 39 46 46 35 15
53 56 53 51 49 51 54 52 54 54 50 44 43 37 30 32 31 27 12 21 22 17 10 16 35 37 69 68 32 57 95 73 44 38 46 42 49 49 47 48 49 44 35 43 45 32 10
61 58 57 51 50 53 51 53 54 54 50 49 45 37 30 32 30 13 15 22 20 5 21 15 19 34 36 62 42 6 90 82 59 38 45 46 37 43 59 48 52 47 32 36 25 9 3
62 60 56 52 52 51 52 56 55 53 51 49 46 35 33 30 31 15 19 12 6 14 20 12 2 39 41 32 49 37 49 53 43 39 48 43 56 53 45 46 47 38 24 14 5 1 13
60 56 54 52 53 51 54 59 59 53 51 48 42 34 32 36 27 9 20 6 21 23 43 48 44 39 22 34 47 61 30 49 50 46 20 30 30 59 48 56 46 33 27 12 16 8 13
56 56 55 51 54 52 56 58 56 52 51 45 40 33 32 31 22 17 10 16 15 25 33 38 56 35 16 23 19 49 53 59 59 51 38 37 36 28 56 45 43 43 20 24 11 4 5
55 56 53 52 55 52 55 57 55 53 51 44 37 29 40 18 20 26 9 17 28 32 35 38 40 30 46 46 35 22 42 53 53 60 35 22 14 43 42 40 45 46 14 12 4 13 12
55 55 55 55 54 49 54 59 53 53 47 38 26 11 13 14 27 17 13 18 27 43 48 41 41 45 43 44 38 34 27 30 60 54 60 40 13 20 43 44 49 23 10 8 14 11 10
58 56 54 54 52 50 55 59 45 50 40 22 10 5 7 29 6 6 5 13 13 38 55 40 39 36 38 43 32 27 23 26 39 44 62 57 13 24 33 34 44 19 16 16 16 12 9
56 55 53 53 53 57 54 50 43 45 31 19 12 16 11 24 6 5 17 33 35 39 36 34 39 38 25 27 16 27 26 45 44 29 58 47 37 6 26 17 33 32 27 15 14 12 18
53 55 53 54 52 60 51 46 46 36 23 19 12 6 7 20 21 12 19 21 25 32 28 20 29 39 17 32 32 30 55 29 78 36 45 54 23 41 18 20 32 27 39 32 16 13 12
50 54 56 57 56 56 52 50 43 32 29 17 8 8 10 6 9 12 11 18 33 25 32 36 15 27 17 16 38 35 40 57 45 27 38 31 50 24 48 44 20 47 44 39 33 17 25
50 54 55 60 58 55 51 45 40 32 32 20 10 9 17 29 28 19 14 17 30 34 26 21 18 35 33 26 18 39 32 25 27 25 37 23 36 39 21 40 36 47 47 41 38 20 17
51 55 58 59 58 53 48 45 37 33 33 16 24 24 18 12 14 13 12 18 26 29 26 31 25 17 23 16 14 44 49 50 48 42 35 13 9 30 32 20 22 27 51 47 41 20 25
58 59 60 60 58 55 47 45 38 32 32 27 29 29 8 8 15 21 35 26 31 34 31 35 35 18 29 14 30 48 56 52 45 43 28 24 18 16 24 18 24 18 34 40 40 32 19
61 60 60 62 62 56 48 49 38 35 33 29 19 20 6 8 22 32 33 26 28 41 26 31 36 42 41 35 18 16 28 34 23 41 34 32 14 8 17 33 7 4 25 42 20 20 24
62 62 62 63 63 56 46 44 38 36 30 31 20 17 18 9 10 39 30 30 17 17 14 26 56 48 38 6 2 3 6 14 14 27 25 24 24 5 5 15 24 9 17 22 13 13 19
63 65 64 62 61 58 49 39 32 30 30 28 22 24 17 13 32 28 16 19 27 19 11 25 31 23 21 5 2 1 7 10 11 21 18 7 4 15 5 10 6 3 14 16 26 18 15
63 65 65 61 60 59 52 42 34 28 28 33 33 19 32 11 58 15 35 26 28 17 7 18 23 5 10 6 7 7 5 8 8 14 25 12 11 3 3 11 6 10 26 5 15 14 20
63 65 65 64 65 62 53 43 36 32 26 28 35 33 32 28 52 54 40 24 38 34 31 5 3 2 8 8 12 6 3 5 2 7 20 4 14 9 9 4 23 68 59 57 39 31 21
Wind_Direction_500mb
327 325 323 322 322 319 322 324 320 311 303 297 295 293 295 294 290 280 272 271 271 271 271 273 273 272 272 251 237 233 256 296 280 221 222 222 228 235 236 231 241 243 248 254 260 265 260
11 8 3 358 349 335 327 322 318 314 313 309 306 302 294 289 291 289 280 270 265 265 267 267 267 266 262 244 251 254 246 262 268 239 228 219 225 223 257 235 243 249 254 253 255 264 258
5 3 2 1 1 360 357 354 350 345 335 320 311 312 308 294 288 294 290 278 270 264 260 263 265 265 252 245 244 225 231 235 257 248 231 228 224 235 236 264 250 260 264 273 266 266 260
354 352 350 348 347 346 341 341 340 337 336 339 332 321 314 312 298 286 290 289 279 269 259 259 259 262 257 260 258 247 209 222 231 234 234 241 225 234 253 263 281 276 260 258 253 265 260
354 351 348 346 342 337 338 339 339 336 333 331 332 332 322 314 314 303 291 285 280 279 257 254 255 240 267 268 232 248 230 239 213 219 229 238 235 221 234 238 266 258 260 262 268 246 259
350 346 342 337 331 330 331 332 332 333 333 330 328 326 327 320 312 313 309 294 288 245 253 246 236 246 253 234 240 245 226 219 226 228 217 224 231 231 240 217 229 235 257 253 256 259 256
348 345 343 339 334 331 327 327 327 325 324 326 326 322 325 324 317 314 318 336 215 217 220 201 201 203 230 192 254 234 225 208 213 227 206 202 212 229 223 231 228 242 248 249 254 257 250
339 336 339 337 336 332 329 328 326 324 321 318 316 319 321 321 322 313 307 284 234 348 288 249 245 238 249 260 292 241 201 194 207 214 207 222 223 221 232 232 242 228 249 261 274 278 265
339 340 339 335 335 333 329 328 326 324 322 319 313 308 314 314 321 345 336 313 340 311 268 261 235 239 237 244 249 250 209 201 195 210 204 216 223 216 228 230 239 239 232 250 258 275 284
338 337 335 332 332 332 326 324 326 324 323 320 318 307 305 307 314 322 293 308 333 284 280 259 213 242 223 222 256 233 230 204 191 208 211 234 219 221 214 228 226 239 223 236 249 258 253
341 338 335 333 332 331 328 326 326 325 324 320 315 311 299 294 293 286 265 350 9 213 278 214 211 201 201 189 147 214 215 208 204 199 200 210 208 214 227 216 229 241 224 230 240 249 225
341 339 336 334 332 331 330 330 326 324 323 322 314 300 290 282 286 349 311 316 340 218 245 272 151 180 168 202 215 190 193 218 206 212 221 223 231 213 230 232 225 231 232 240 243 196 263
342 337 335 335 335 335 332 330 328 325 323 323 318 296 272 263 257 245 299 298 223 227 287 248 335 169 186 187 203 234 187 204 201 199 216 220 223 236 237 230 237 222 218 243 314 344 228
344 343 341 337 337 337 333 332 331 327 325 325 317 301 281 263 263 264 291 259 224 245 253 291 334 335 225 172 204 212 205 208 218 206 176 208 226 215 219 228 231 225 198 176 200 168 250
347 344 339 339 339 337 337 335 335 331 326 322 317 313 285 269 245 209 222 224 231 246 282 301 332 312 313 243 179 207 217 206 211 209 207 195 228 183 219 223 220 240 202 182 139 212 248
345 344 343 340 339 338 337 339 336 334 328 321 314 301 291 252 197 202 210 242 237 248 280 306 307 292 316 318 334 303 208 220 213 211 213 249 228 230 211 219 241 211 173 137 76 194 263
349 345 343 342 342 340 338 337 336 336 332 324 319 297 318 204 192 199 236 251 276 276 290 299 313 313 310 312 310 318 265 244 206 204 209 215 219 234 215 208 215 217 173 123 131 151 179
351 350 351 350 348 344 343 340 344 344 337 347 320 289 356 174 158 199 246 245 274 298 296 300 290 286 292 353 315 307 259 254 210 196 202 209 203 239 232 213 202 189 159 150 173 227 225
355 356 354 354 354 348 343 344 346 343 338 323 293 270 262 201 254 204 266 271 269 272 284 302 297 296 335 306 307 284 309 323 356 309 199 196 224 253 242 273 196 183 179 147 140 138 212
356 355 354 353 352 354 353 349 347 346 335 312 305 304 179 191 215 222 276 287 289 280 287 319 316 297 280 284 281 294 314 325 327 330 314 177 196 215 222 209 188 172 182 188 153 178 182
358 357 357 355 353 350 349 348 352 356 352 325 286 278 321 290 310 283 275 283 285 289 282 282 319 318 259 287 303 294 318 324 324 339 346 190 203 195 226 249 203 184 181 186 202 172 186
358 356 356 356 356 352 352 353 351 350 349 320 282 318 332 303 306 311 299 266 280 292 268 285 264 257 269 257 283 298 314 320 300 327 347 323 207 200 223 230 243 190 187 190 208 186 181
357 355 355 356 358 358 356 352 351 344 342 329 308 298 293 279 290 296 278 296 288 290 290 263 276 306 316 298 272 273 271 274 267 284 301 284 299 183 214 235 233 235 189 193 206 204 179
355 353 352 355 356 355 349 350 347 345 339 320 297 299 287 289 296 297 332 311 300 299 287 289 313 305 287 273 254 266 264 275 254 259 240 258 311 205 195 204 234 222 195 198 201 200 203
354 354 352 352 351 353 352 355 349 341 340 334 326 276 277 284 304 301 329 320 310 300 323 323 320 323 307 293 281 287 308 281 231 232 233 221 231 279 172 203 311 236 199 192 189 215 193
350 348 347 348 351 351 350 353 354 350 347 346 334 305 286 295 249 318 316 322 320 325 330 334 323 315 286 212 323 61 295 319 324 321 193 202 205 161 159 147 205 221 250 174 116 205 187
345 344 345 347 348 349 346 345 348 345 343 344 333 317 277 253 281 306 311 326 316 332 312 310 340 330 189 173 71 58 249 24 297 323 342 250 166 199 148 106 356 336 278 166 181 218 180
343 342 342 344 345 344 341 337 331 330 333 334 334 325 327 251 293 276 315 306 291 316 313 324 331 345 309 240 159 147 213 207 305 320 328 333 306 152 96 84 79 349 295 240 199 109 110
342 341 341 341 342 340 335 329 330 323 316 318 321 329 332 285 277 312 314 294 283 271 261 275 240 186 312 343 18 5 6 160 133 257 333 15 356 320 352 37 2 14 2 345 170 129 126
Wind_Speed_850mb
32 33 32 32 33 35 36 34 34 38 42 46 49 48 49 48 50 50 52 56 53 54 53 53 52 45 40 31 57 36 18 26 15 36 71 63 58 61 39 48 47 43 46 64 71 70 52
35 35 33 33 33 33 36 38 38 39 36 39 41 41 45 50 52 51 49 49 53 53 50 50 48 44 42 40 74 66 58 42 44 28 45 62 49 68 40 48 44 57 51 57 69 59 36
37 38 38 38 34 33 34 37 39 39 38 36 40 43 42 45 47 44 48 48 49 49 49 47 45 43 51 83 44 34 41 51 55 44 41 54 67 43 53 26 60 54 45 46 44 43 26
29 31 32 34 36 40 42 41 40 41 42 43 42 39 39 42 43 49 53 52 48 45 42 44 41 38 40 71 67 85 53 51 30 48 35 25 43 61 59 39 46 36 37 39 20 23 54
35 35 35 34 36 38 41 43 46 47 45 44 44 43 42 42 42 46 52 57 50 31 37 33 34 33 30 24 55 76 78 67 39 52 44 38 43 51 42 31 26 22 27 28 30 38 44
37 38 38 39 39 42 44 46 48 48 48 48 46 46 45 44 45 46 48 54 29 26 30 22 26 12 46 45 47 49 68 81 58 29 48 53 38 23 24 19 36 26 20 26 37 47 36
44 44 43 43 44 44 45 46 46 46 48 49 48 48 44 46 44 44 52 32 7 8 33 35 40 52 14 14 16 41 38 58 59 56 24 37 14 35 42 40 25 27 28 39 46 41 45
49 49 47 48 47 46 46 46 48 50 50 49 48 48 48 46 42 40 41 26 21 13 27 52 73 75 67 57 32 41 42 52 48 41 28 24 48 37 37 31 32 35 38 47 45 42 21
53 52 50 50 50 48 48 49 51 50 49 48 47 46 45 44 42 25 26 32 37 20 17 33 68 83 76 65 70 58 62 66 42 41 43 46 16 38 36 37 37 39 41 41 40 43 35
53 53 52 50 49 49 51 51 53 52 51 49 45 37 38 41 27 18 24 18 27 11 10 19 30 43 61 54 32 84 63 75 19 50 44 37 36 36 46 44 44 41 39 46 46 35 15
53 56 53 51 49 51 54 52 54 54 50 44 43 37 30 32 31 27 12 21 22 17 10 16 35 37 69 68 32 57 95 73 44 38 46 42 49 49 47 48 49 44 35 43 45 32 10
61 58 57 51 50 53 51 53 54 54 50 49 45 37 30 32 30 13 15 22 20 5 21 15 19 34 36 62 42 6 90 82 59 38 45 46 37 43 59 48 52 47 32 36 25 9 3
62 60 56 52 52 51 52 56 55 53 51 49 46 35 33 30 31 15 19 12 6 14 20 12 2 39 41 32 49 37 49 53 43 39 48 43 56 53 45 46 47 38 24 14 5 1 13
60 56 54 52 53 51 54 59 59 53 51 48 42 34 32 36 27 9 20 6 21 23 43 48 44 39 22 34 47 61 30 49 50 46 20 30 30 59 48 56 46 33 27 12 16 8 13
56 56 55 51 54 52 56 58 56 52 51 45 40 33 32 31 22 17 10 16 15 25 33 38 56 35 16 23 19 49 53 59 59 51 38 37 36 28 56 45 43 43 20 24 11 4 5
55 56 53 52 55 52 55 57 55 53 51 44 37 29 40 18 20 26 9 17 28 32 35 38 40 30 46 46 35 22 42 53 53 60 35 22 14 43 42 40 45 46 14 12 4 13 12
55 55 55 55 54 49 54 59 53 53 47 38 26 11 13 14 27 17 13 18 27 43 48 41 41 45 43 44 38 34 27 30 60 54 60 40 13 20 43 44 49 23 10 8 14 11 10
58 56 54 54 52 50 55 59 45 50 40 22 10 5 7 29 6 6 5 13 13 38 55 40 39 36 38 43 32 27 23 26 39 44 62 57 13 24 33 34 44 19 16 16 16 12 9
56 55 53 53 53 57 54 50 43 45 31 19 12 16 11 24 6 5 17 33 35 39 36 34 39 38 25 27 16 27 26 45 44 29 58 47 37 6 26 17 33 32 27 15 14 12 18
53 55 53 54 52 60 51 46 46 36 23 19 12 6 7 20 21 12 19 21 25 32 28 20 29 39 17 32 32 30 55 29 78 36 45 54 23 41 18 20 32 27 39 32 16 13 12
50 54 56 57 56 56 52 50 43 32 29 17 8 8 10 6 9 12 11 18 33 25 32 36 15 27 17 16 38 35 40 57 45 27 38 31 50 24 48 44 20 47 44 39 33 17 25
50 54 55 60 58 55 51 45 40 32 32 20 10 9 17 29 28 19 14 17 30 34 26 21 18 35 33 26 18 39 32 25 27 25 37 23 36 39 21 40 36 47 47 41 38 20 17
51 55 58 59 58 53 48 45 37 33 33 16 24 24 18 12 14 13 12 18 26 29 26 31 25 17 23 16 14 44 49 50 48 42 35 13 9 30 32 20 22 27 51 47 41 20 25
58 59 60 60 58 55 47 45 38 32 32 27 29 29 8 8 15 21 35 26 31 34 31 35 35 18 29 14 30 48 56 52 45 43 28 24 18 16 24 18 24 18 34 40 40 32 19
61 60 60 62 62 56 48 49 38 35 33 29 19 20 6 8 22 32 33 26 28 41 26 31 36 42 41 35 18 16 28 34 23 41 34 32 14 8 17 33 7 4 25 42 20 20 24
62 62 62 63 63 56 46 44 38 36 30 31 20 17 18 9 10 39 30 30 17 17 14 26 56 48 38 6 2 3 6 14 14 27 25 24 24 5 5 15 24 9 17 22 13 13 19
63 65 64 62 61 58 49 39 32 30 30 28 22 24 17 13 32 28 16 19 27 19 11 25 31 23 21 5 2 1 7 10 11 21 18 7 4 15 5 10 6 3 14 16 26 18 15
63 65 65 61 60 59 52 42 34 28 28 33 33 19 32 11 58 15 35 26 28 17 7 18 23 5 10 6 7 7 5 8 8 14 25 12 11 3 3 11 6 10 26 5 15 14 20
63 65 65 64 65 62 53 43 36 32 26 28 35 33 32 28 52 54 40 24 38 34 31 5 3 2 8 8 12 6 3 5 2 7 20 4 14 9 9 4 23 68 59 57 39 31 21
Wind_Direction_850mb
327 325 323 322 322 319 322 324 320 311 303 297 295 293 295 294 290 280 272 271 271 271 271 273 273 272 272 251 237 233 256 296 280 221 222 222 228 235 236 231 241 243 248 254 260 265 260
11 8 3 358 349 335 327 322 318 314 313 309 306 302 294 289 291 289 280 270 265 265 267 267 267 266 262 244 251 254 246 262 268 239 228 219 225 223 257 235 243 249 254 253 255 264 258
5 3 2 1 1 360 357 354 350 345 335 320 311 312 308 294 288 294 290 278 270 264 260 263 265 265 252 245 244 225 231 235 257 248 231 228 224 235 236 264 250 260 264 273 266 266 260
354 352 350 348 347 346 341 341 340 337 336 339 332 321 314 312 298 286 290 289 279 269 259 259 259 262 257 260 258 247 209 222 231 234 234 241 225 234 253 263 281 276 260 258 253 265 260
354 351 348 346 342 337 338 339 339 336 333 331 332 332 322 314 314 303 291 285 280 279 257 254 255 240 267 268 232 248 230 239 213 219 229 238 235 221 234 238 266 258 260 262 268 246 259
350 346 342 337 331 330 331 332 332 333 333 330 328 326 327 320 312 313 309 294 288 245 253 246 236 246 253 234 240 245 226 219 226 228 217 224 231 231 240 217 229 235 257 253 256 259 256
348 345 343 339 334 331 327 327 327 325 324 326 326 322 325 324 317 314 318 336 215 217 220 201 201 203 230 192 254 234 225 208 213 227 206 202 212 229 223 231 228 242 248 249 254 257 250
339 336 339 337 336 332 329 328 326 324 321 318 316 319 321 321 322 313 307 284 234 348 288 249 245 238 249 260 292 241 201 194 207 214 207 222 223 221 232 232 242 228 249 261 274 278 265
339 340 339 335 335 333 329 328 326 324 322 319 313 308 314 314 321 345 336 313 340 311 268 261 235 239 237 244 249 250 209 201 195 210 204 216 223 216 228 230 239 239 232 250 258 275 284
338 337 335 332 332 332 326 324 326 324 323 320 318 307 305 307 314 322 293 308 333 284 280 259 213 242 223 222 256 233 230 204 191 208 211 234 219 221 214 228 226 239 223 236 249 258 253
341 338 335 333 332 331 328 326 326 325 324 320 315 311 299 294 293 286 265 350 9 213 278 214 211 201 201 189 147 214 215 208 204 199 200 210 208 214 227 216 229 241 224 230 240 249 225
341 339 336 334 332 331 330 330 326 324 323 322 314 300 290 282 286 349 311 316 340 218 245 272 151 180 168 202 215 190 193 218 206 212 221 223 231 213 230 232 225 231 232 240 243 196 263
342 337 335 335 335 335 332 330 328 325 323 323 318 296 272 263 257 245 299 298 223 227 287 248 335 169 186 187 203 234 187 204 201 199 216 220 223 236 237 230 237 222 218 243 314 344 228
344 343 341 337 337 337 333 332 331 327 325 325 317 301 281 263 263 264 291 259 224 245 253 291 334 335 225 172 204 212 205 208 218 206 176 208 226 215 219 228 231 225 198 176 200 168 250
347 344 339 339 339 337 337 335 335 331 326 322 317 313 285 269 245 209 222 224 231 246 282 301 332 312 313 243 179 207 217 206 211 209 207 195 228 183 219 223 220 240 202 182 139 212 248
345 344 343 340 339 338 337 339 336 334 328 321 314 301 291 252 197 202 210 242 237 248 280 306 307 292 316 318 334 303 208 220 213 211 213 249 228 230 211 219 241 211 173 137 76 194 263
349 345 343 342 342 340 338 337 336 336 332 324 319 297 318 204 192 199 236 251 276 276 290 299 313 313 310 312 310 318 265 244 206 204 209 215 219 234 215 208 215 217 173 123 131 151 179
351 350 351 350 348 344 343 340 344 344 337 347 320 289 356 174 158 199 246 245 274 298 296 300 290 286 292 353 315 307 259 254 210 196 202 209 203 239 232 213 202 189 159 150 173 227 225
355 356 354 354 354 348 343 344 346 343 338 323 293 270 262 201 254 204 266 271 269 272 284 302 297 296 335 306 307 284 309 323 356 309 199 196 224 253 242 273 196 183 179 147 140 138 212
356 355 354 353 352 354 353 349 347 346 335 312 305 304 179 191 215 222 276 287 289 280 287 319 316 297 280 284 281 294 314 325 327 330 314 177 196 215 222 209 188 172 182 188 153 178 182
358 357 357 355 353 350 349 348 352 356 352 325 286 278 321 290 310 283 275 283 285 289 282 282 319 318 259 287 303 294 318 324 324 339 346 190 203 195 226 249 203 184 181 186 202 172 186
358 356 356 356 356 352 352 353 351 350 349 320 282 318 332 303 306 311 299 266 280 292 268 285 264 257 269 257 283 298 314 320 300 327 347 323 207 200 223 230 243 190 187 190 208 186 181
357 355 355 356 358 358 356 352 351 344 342 329 308 298 293 279 290 296 278 296 288 290 290 263 276 306 316 298 272 273 271 274 267 284 301 284 299 183 214 235 233 235 189 193 206 204 179
355 353 352 355 356 355 349 350 347 345 339 320 297 299 287 289 296 297 332 311 300 299 287 289 313 305 287 273 254 266 264 275 254 259 240 258 311 205 195 204 234 222 195 198 201 200 203
354 354 352 352 351 353 352 355 349 341 340 334 326 276 277 284 304 301 329 320 310 300 323 323 320 323 307 293 281 287 308 281 231 232 233 221 231 279 172 203 311 236 199 192 189 215 193
350 348 347 348 351 351 350 353 354 350 347 346 334 305 286 295 249 318 316 322 320 325 330 334 323 315 286 212 323 61 295 319 324 321 193 202 205 161 159 147 205 221 250 174 116 205 187
345 344 345 347 348 349 346 345 348 345 343 344 333 317 277 253 281 306 311 326 316 332 312 310 340 330 189 173 71 58 249 24 297 323 342 250 166 199 148 106 356 336 278 166 181 218 180
343 342 342 344 345 344 341 337 331 330 333 334 334 325 327 251 293 276 315 306 291 316 313 324 331 345 309 240 159 147 213 207 305 320 328 333 306 152 96 84 79 349 295 240 199 109 110
342 341 341 341 342 340 335 329 330 323 316 318 321 329 332 285 277 312 314 294 283 271 261 275 240 186 312 343 18 5 6 160 133 257 333 15 356 320 352 37 2 14 2 345 170 129 126